Temp
53 54 55 55 55 55 55 54 47 57 59 47 48 43 49 50 51 52 52 51 50 49 49 48 48 50 55 58 57 53 56 49 46 53 55 56 56 56 57 48 47 43 41 43
52 52 53 54 54 55 56 51 51 56 57 43 44 49 49 52 49 53 48 48 50 51 49 47 48 49 57 55 56 52 52 47 42 46 52 52 52 53 55 53 49 46 41 46
52 52 52 52 53 54 55 48 39 48 52 54 49 47 46 45 54 52 53 50 51 48 47 50 49 47 53 53 55 51 55 49 48 44 50 53 46 49 52 53 46 48 48 50
51 51 52 52 52 54 55 49 43 46 41 46 49 51 50 45 43 53 54 48 51 50 45 46 46 49 49 50 52 52 54 48 47 51 53 51 52 53 51 46 51 46 51 52
51 51 51 51 51 52 49 41 43 45 46 49 47 46 48 48 48 47 46 46 50 52 48 50 48 51 49 51 47 49 49 46 50 46 51 51 48 52 51 49 50 51 52 51
51 52 51 51 51 51 45 44 45 47 46 46 44 46 48 49 52 52 54 52 50 47 52 56 58 57 53 52 51 46 45 46 38 37 46 47 39 46 50 52 54 53 47 54
51 51 51 51 50 50 46 44 45 42 40 45 45 50 51 50 52 49 52 54 49 56 58 59 50 48 50 51 52 55 47 44 42 37 40 31 48 57 56 50 52 55 56 58
51 51 51 51 51 51 45 44 43 41 36 46 46 48 50 52 53 50 51 53 58 58 53 40 36 35 38 43 47 48 52 45 36 35 35 42 47 48 49 48 48 55 55 57
50 50 50 51 51 51 47 44 44 40 36 37 44 44 47 45 45 45 47 48 52 53 46 37 35 33 38 37 41 51 49 48 41 32 31 32 51 52 57 55 41 57 54 54
50 50 50 50 51 51 47 43 43 39 33 37 39 39 40 45 45 42 41 43 44 51 40 37 36 37 43 36 36 37 39 40 37 37 35 38 51 51 56 39 46 55 56 57
50 50 50 50 51 51 48 42 44 39 33 36 41 40 38 39 41 39 39 41 39 39 39 37 34 35 38 37 44 42 39 37 37 38 35 33 52 50 46 51 52 53 53 53
49 49 50 50 50 51 50 41 45 44 37 35 41 44 45 42 42 38 38 39 39 40 38 37 36 32 35 38 35 43 37 44 41 41 41 50 52 54 55 53 52 50 51 52
49 49 49 50 50 51 50 42 42 39 35 34 36 36 44 46 44 46 35 37 39 38 39 37 37 33 37 33 36 37 42 47 41 42 46 47 50 53 53 53 52 53 53 52
48 49 49 50 50 50 50 42 43 41 37 31 34 42 40 45 46 45 45 41 42 39 37 32 32 32 36 35 38 41 43 44 43 40 44 46 49 51 50 49 49 50 51 50
48 49 49 49 50 50 48 44 44 45 39 31 32 38 41 42 44 43 44 42 39 34 32 32 32 33 33 34 33 34 43 43 40 39 46 46 46 50 50 47 49 52 48 46
48 48 49 49 49 49 43 34 43 45 42 35 29 37 36 40 41 42 41 41 40 35 33 33 34 37 35 31 31 41 44 47 47 43 46 46 47 51 50 49 49 48 47 48
48 48 49 48 49 46 36 35 41 46 43 34 30 30 35 38 40 39 39 40 36 36 34 32 35 34 36 32 30 41 45 47 48 49 46 43 44 45 47 46 46 46 46 45
48 48 48 48 47 43 38 42 47 47 39 37 29 26 31 38 33 34 38 35 34 33 33 33 33 35 34 30 37 42 45 47 46 45 47 48 48 46 44 43 42 40 40 39
48 46 45 41 38 33 38 46 45 42 38 31 31 27 25 36 34 36 35 35 30 35 32 33 33 32 29 35 38 41 43 42 43 44 46 46 43 42 41 41 41 37 36 36
45 41 35 32 34 45 45 38 33 33 33 34 30 32 28 35 32 32 31 32 30 27 32 34 31 31 39 43 44 43 42 43 43 37 35 37 37 38 39 38 37 36 35 34
37 33 30 38 45 37 33 31 30 29 27 30 31 32 30 35 30 30 32 29 30 25 29 29 27 28 35 39 39 40 41 42 43 44 43 42 40 36 35 34 34 34 33 33
38 37 39 38 34 31 28 27 28 27 27 30 30 31 33 32 34 31 29 27 28 22 30 25 23 31 35 35 34 36 37 39 39 41 40 39 37 37 36 35 34 34 34 33
40 36 30 30 27 21 23 21 24 24 28 30 31 29 32 32 34 30 29 24 23 31 24 22 29 34 35 34 34 34 36 36 35 34 33 33 32 33 33 31 32 33 30 30
31 28 21 23 21 22 26 28 29 31 31 31 31 29 29 30 29 28 23 28 28 21 17 22 30 31 31 33 34 34 34 33 32 32 31 29 28 27 28 28 28 28 27 25
29 28 18 21 26 29 28 29 30 31 33 32 30 29 30 28 26 28 26 22 20 23 24 29 29 30 32 33 34 34 32 31 30 31 28 27 28 28 26 27 29 27 25 25
31 29 24 29 28 26 30 29 30 34 33 33 32 27 25 25 27 24 21 23 21 26 30 30 34 32 33 33 32 32 32 32 30 31 31 29 27 28 28 28 27 23 24 22
32 25 27 27 25 25 29 30 31 36 33 27 29 23 25 28 24 24 29 25 28 29 31 33 34 32 31 31 31 30 31 31 31 30 30 29 29 29 29 26 26 27 26 22
MSLP
1001.08 1001.17 1002.03 1002.93 1003.82 1005.18 1006.58 1006.92 1007.39 1007.85 1009.78 1010.55 1009.45 1008.14 1008.87 1008.85 1009.05 1009.35 1009.39 1009.40 1009.46 1009.19 1009.13 1009.48 1009.52 1009.08 1008.47 1008.08 1008.59 1009.42 1009.52 1009.56 1009.34 1008.49 1008.55 1008.60 1008.71 1008.87 1009.21 1009.27 1008.60 1008.43 1007.85 1003.52
999.57 1001.03 1001.60 1002.38 1002.73 1003.33 1004.82 1005.25 1006.35 1006.70 1006.44 1007.27 1006.43 1007.49 1007.89 1008.56 1008.63 1008.63 1008.82 1009.08 1009.26 1009.24 1009.22 1009.54 1009.10 1008.67 1008.12 1008.16 1008.26 1008.41 1009.03 1009.46 1009.46 1009.02 1009.19 1009.15 1008.61 1008.41 1008.26 1008.31 1008.53 1007.06 1007.19 1002.90
1000.92 1001.37 1001.64 1002.01 1002.48 1003.10 1003.99 1003.79 1004.62 1004.77 1004.91 1003.46 1004.50 1006.17 1006.61 1007.15 1007.48 1007.88 1008.10 1008.38 1008.95 1009.29 1009.33 1008.91 1008.32 1008.67 1008.42 1008.46 1008.38 1008.36 1008.22 1008.13 1007.93 1007.60 1007.94 1008.04 1008.15 1007.68 1007.80 1007.77 1007.31 1006.77 1003.55 1002.09
1000.57 1000.76 1001.85 1001.71 1001.72 1002.72 1003.07 1003.07 1003.75 1003.32 1002.72 1002.76 1003.38 1005.10 1004.98 1005.64 1005.98 1006.73 1007.36 1007.86 1007.56 1008.25 1008.51 1008.36 1008.02 1008.57 1008.82 1008.98 1008.79 1008.84 1008.65 1007.94 1008.20 1007.62 1007.81 1007.82 1007.07 1006.59 1007.23 1007.01 1006.26 1006.06 1002.89 1002.33
1000.21 1000.86 1001.81 1001.87 1001.93 1002.88 1003.00 1002.64 1003.47 1003.48 1003.14 1002.90 1003.18 1003.64 1003.10 1003.64 1004.52 1005.10 1006.10 1005.94 1006.84 1007.05 1006.06 1006.71 1006.75 1007.76 1008.47 1008.85 1009.47 1009.09 1008.72 1007.50 1007.83 1006.74 1008.10 1007.88 1005.54 1005.61 1006.16 1005.80 1005.60 1004.74 1004.02 1000.54
999.84 1000.47 1001.35 1001.58 1001.91 1002.55 1002.26 1002.39 1002.95 1002.65 1002.19 1003.10 1003.45 1002.35 1001.95 1002.29 1003.86 1003.45 1004.16 1004.96 1005.77 1005.24 1004.37 1005.17 1005.42 1006.53 1007.31 1008.05 1008.18 1008.38 1008.62 1008.31 1008.75 1005.73 1008.24 1007.74 1004.40 1003.54 1004.07 1004.02 1003.99 1003.59 1002.41 999.16
999.23 999.79 1000.79 1000.84 1001.45 1002.29 1002.76 1002.70 1002.59 1003.15 1002.30 1002.56 1001.27 1001.05 1001.16 1001.36 1001.62 1002.13 1003.08 1003.70 1003.83 1003.57 1004.42 1005.24 1006.46 1006.97 1006.98 1007.27 1006.92 1007.03 1007.26 1007.98 1008.82 1006.82 1007.88 1006.01 1000.70 1001.70 1002.21 1002.44 1001.81 1001.85 1000.97 1000.67
998.34 998.76 999.99 1000.52 1001.35 1002.37 1003.11 1003.16 1003.17 1003.09 1002.46 1002.44 1001.90 1001.14 1001.05 1001.52 1002.13 1002.36 1002.43 1002.60 1001.99 1003.95 1004.86 1005.76 1006.58 1007.04 1007.21 1005.88 1005.95 1006.02 1006.30 1007.36 1007.62 1007.25 1006.16 1004.15 1000.20 1001.73 1001.99 1001.87 998.70 1000.37 1000.40 1000.11
997.60 998.38 999.30 1000.18 1000.66 1001.88 1003.13 1003.31 1003.52 1004.08 1003.83 1003.33 1002.79 1002.33 1001.78 1001.51 1001.91 1002.50 1001.90 1002.51 1002.57 1003.57 1004.69 1004.77 1004.94 1005.45 1005.32 1004.92 1004.10 1004.26 1005.56 1006.00 1006.45 1006.36 1005.23 1003.17 998.94 1000.14 1000.16 1001.46 998.76 999.27 999.54 999.65
997.13 997.80 998.74 999.58 1000.38 1001.18 1002.68 1003.44 1003.74 1004.46 1004.86 1004.46 1003.92 1003.28 1002.76 1002.23 1001.95 1002.16 1002.49 1002.81 1003.34 1003.20 1003.31 1004.20 1003.46 1003.76 1003.55 1003.60 1002.85 1003.77 1004.02 1004.52 1004.16 1004.35 1003.48 1002.07 1000.01 1001.17 1001.21 1001.22 998.70 998.96 999.41 999.71
996.71 997.19 998.55 999.32 999.69 1000.70 1002.12 1002.92 1003.16 1004.22 1004.93 1005.02 1004.49 1004.10 1003.78 1003.50 1003.15 1003.03 1003.11 1003.14 1002.94 1003.56 1002.84 1003.41 1003.09 1003.28 1002.33 1002.12 1001.14 1001.60 1002.64 1003.11 1002.53 1002.62 1002.27 1000.98 999.81 1001.03 1000.38 999.23 999.27 999.54 999.72 999.93
995.85 996.91 997.96 998.31 999.12 1000.22 1001.60 1002.54 1002.96 1003.75 1004.87 1005.32 1004.95 1004.73 1004.41 1004.45 1004.68 1004.78 1004.00 1003.49 1003.75 1003.54 1002.66 1002.44 1002.83 1002.84 1002.30 1001.52 1001.30 1001.14 1001.02 1000.31 1000.49 1000.95 999.71 999.78 999.28 998.92 998.99 999.59 999.89 1000.30 1000.30 1000.46
995.35 996.04 996.65 997.35 998.44 999.49 1000.65 1001.52 1002.44 1004.01 1004.85 1005.58 1005.23 1004.38 1004.17 1004.17 1004.37 1004.76 1005.22 1004.68 1004.76 1004.85 1004.63 1003.97 1003.37 1002.72 1001.95 1001.64 1000.79 1000.59 1000.33 1000.12 999.84 1000.08 999.33 999.44 999.27 999.53 999.85 1000.06 1000.16 1000.34 1000.58 1000.80
994.80 994.84 995.48 996.55 997.75 998.54 999.83 1000.33 1001.64 1002.96 1003.88 1004.83 1004.10 1004.02 1003.81 1003.46 1003.76 1004.28 1004.24 1005.00 1005.10 1005.74 1005.61 1005.19 1004.20 1003.81 1003.10 1002.16 1001.12 1000.14 999.76 999.73 999.15 999.37 999.20 999.65 999.30 999.41 999.86 1000.37 1000.62 1000.59 1000.50 1000.74
994.26 994.56 995.17 995.96 997.12 998.06 999.32 1000.10 1001.33 1001.41 1002.65 1003.67 1004.14 1004.06 1003.88 1003.49 1003.61 1004.00 1004.16 1004.21 1004.63 1005.71 1005.82 1005.34 1004.87 1004.02 1003.84 1003.01 1002.21 1001.07 999.72 999.23 999.30 998.85 998.81 998.74 999.08 999.48 999.71 1000.11 1000.53 1000.33 1000.52 1000.98
994.00 994.15 994.51 995.91 996.48 997.72 998.41 1000.39 1001.34 1001.58 1001.67 1003.26 1004.15 1004.16 1003.88 1003.60 1003.83 1003.81 1004.09 1003.89 1004.28 1005.02 1005.12 1004.79 1004.30 1003.93 1004.07 1003.02 1002.22 1000.64 1000.00 999.41 999.44 999.38 999.40 999.42 999.47 999.51 999.42 999.71 999.69 999.90 1000.10 1000.56
993.37 994.05 994.99 995.30 995.98 997.18 998.61 1000.03 1000.09 1000.95 1001.71 1003.61 1004.17 1004.39 1004.23 1004.03 1003.44 1003.44 1003.67 1003.81 1003.75 1004.19 1004.37 1004.23 1003.87 1003.64 1003.38 1002.63 1001.24 999.81 999.65 999.64 998.77 998.96 999.58 999.71 999.56 999.54 999.51 999.97 1000.42 1000.72 1000.71 1001.04
993.29 993.78 994.34 995.20 996.41 998.28 999.27 999.96 1000.14 1000.50 1002.38 1003.26 1003.59 1004.10 1004.26 1003.88 1003.24 1003.54 1003.74 1003.75 1003.59 1003.60 1003.68 1003.64 1003.25 1003.29 1002.63 1001.58 1000.30 999.19 999.16 998.78 998.73 999.05 999.38 999.50 999.51 999.79 1000.07 1000.26 1000.79 1001.31 1001.79 1002.27
993.55 994.31 995.09 996.81 998.10 999.03 999.49 999.96 1000.64 1001.08 1002.02 1002.64 1003.13 1003.36 1003.53 1003.65 1003.30 1003.24 1003.71 1003.34 1003.38 1003.24 1003.07 1002.86 1002.99 1002.13 1001.06 999.43 998.81 998.06 997.97 998.69 998.57 998.78 998.94 998.93 999.70 1000.21 1000.59 1001.06 1001.55 1002.01 1002.47 1002.98
994.49 995.74 997.05 998.30 998.80 999.21 999.58 1000.88 1001.43 1001.58 1002.24 1002.46 1002.40 1002.59 1002.79 1002.95 1003.26 1003.50 1003.57 1003.19 1003.02 1003.01 1002.84 1002.63 1002.10 1000.90 999.21 998.03 998.20 998.19 998.01 998.17 998.85 999.14 999.32 999.62 1000.04 1000.27 1000.97 1001.59 1002.09 1002.70 1003.39 1003.94
996.04 997.45 998.51 998.76 999.24 999.75 1000.46 1001.10 1001.41 1001.96 1002.31 1002.25 1002.24 1002.24 1002.48 1002.94 1002.91 1003.14 1003.34 1003.05 1003.03 1002.94 1002.95 1002.81 1001.91 1000.05 998.54 998.37 998.15 998.14 998.16 998.24 998.38 998.46 998.82 999.54 1000.14 1000.87 1001.55 1002.41 1003.14 1003.38 1003.97 1004.77
996.03 997.25 998.77 999.39 1000.02 1000.63 1001.08 1001.31 1001.65 1001.49 1001.43 1001.79 1001.87 1001.98 1002.17 1002.77 1002.85 1002.92 1003.33 1003.12 1003.28 1003.04 1003.10 1002.82 1001.35 999.53 999.01 998.92 998.65 998.49 998.41 998.44 998.69 998.95 999.59 1000.30 1000.93 1001.54 1002.34 1003.09 1003.70 1004.15 1004.85 1005.44
996.91 997.70 999.15 999.65 1000.75 1000.83 1000.63 1000.66 1000.77 1000.85 1000.83 1001.17 1001.39 1001.76 1002.08 1002.61 1002.60 1002.78 1002.92 1003.06 1003.10 1003.16 1003.00 1001.84 1000.26 999.46 999.30 999.26 999.20 999.13 999.20 999.51 999.98 1000.52 1000.78 1001.15 1001.95 1002.57 1003.03 1003.81 1004.53 1005.11 1005.73 1006.27
998.01 998.81 999.98 1000.07 1000.62 1000.48 1000.08 999.94 999.80 999.85 1000.05 1000.45 1001.07 1001.45 1001.85 1002.19 1002.33 1002.47 1002.59 1002.62 1002.83 1002.77 1002.20 1000.85 999.99 999.72 999.66 999.74 999.94 999.94 1000.30 1000.72 1001.23 1001.76 1002.12 1002.49 1003.00 1003.77 1004.39 1004.86 1005.34 1005.76 1006.47 1007.03
998.44 998.90 999.84 1000.17 1000.12 1000.09 1000.02 1000.05 1000.03 1000.05 1000.18 1000.21 1000.90 1001.51 1001.77 1001.87 1002.05 1002.08 1002.31 1002.50 1002.05 1001.58 1000.66 1000.24 1000.32 1000.27 1000.26 1000.47 1000.64 1000.87 1001.30 1001.75 1002.21 1002.81 1003.24 1003.77 1004.23 1004.67 1005.39 1005.82 1006.18 1006.65 1007.14 1007.48
998.55 999.21 1000.06 1000.12 1000.15 1000.08 1000.00 999.94 999.95 999.79 999.90 1000.30 1000.60 1001.26 1001.51 1001.51 1001.53 1001.73 1001.69 1001.63 1000.93 1000.22 1000.12 1000.36 1000.36 1000.56 1000.83 1001.09 1001.40 1001.79 1002.11 1002.66 1003.27 1003.71 1004.16 1004.63 1005.09 1005.50 1006.07 1006.59 1006.94 1007.25 1007.58 1007.96
999.01 999.56 999.66 999.96 999.97 999.81 999.66 999.60 999.63 999.65 999.98 1000.20 1000.53 1000.92 1000.92 1001.32 1001.24 1001.10 1000.90 1000.68 1000.34 1000.42 1000.50 1000.52 1000.60 1000.95 1001.45 1001.91 1002.35 1002.72 1003.09 1003.56 1004.03 1004.52 1004.98 1005.41 1005.84 1006.22 1006.57 1007.12 1007.66 1007.93 1008.28 1008.65
Wind_Speed
11 18 20 25 28 31 22 7 13 16 17 10 8 20 16 7 8 4 3 1 4 7 8 6 6 11 6 8 8 10 4 4 6 13 3 2 1 8 11 10 11 5 6 15
6 10 12 18 23 34 9 7 7 17 19 17 18 11 19 14 12 17 8 8 5 4 7 3 7 7 5 9 10 12 10 4 3 3 2 1 6 7 8 8 5 19 17 11
7 8 9 11 19 28 6 5 5 5 12 18 24 21 16 17 21 12 14 5 5 4 5 6 5 6 5 4 5 3 9 7 8 13 9 3 5 11 12 16 15 15 25 35
11 7 7 9 9 21 6 6 4 4 9 18 22 23 14 18 13 20 21 11 21 15 14 14 12 5 1 1 2 1 5 15 9 11 10 6 16 21 15 20 20 21 22 32
12 13 12 9 9 8 7 5 6 1 3 3 12 13 23 26 22 14 18 20 20 19 27 24 15 18 8 14 1 7 6 15 10 22 14 16 32 25 20 19 20 22 25 40
16 16 16 14 10 8 1 1 2 2 8 13 14 15 23 26 21 18 25 26 22 28 31 25 24 12 9 11 19 12 7 5 3 30 15 15 29 18 28 28 29 27 30 42
19 18 18 17 15 13 1 0 3 4 11 14 22 26 27 24 27 30 22 22 28 27 6 19 4 3 12 19 21 16 14 14 11 18 5 14 21 9 15 22 27 29 31 31
19 20 19 18 20 18 1 1 2 1 2 12 15 19 24 22 18 21 22 20 22 14 13 3 2 2 3 17 18 18 17 12 6 9 14 17 32 7 8 11 28 23 24 26
18 19 20 19 20 20 6 1 3 2 2 3 4 5 12 13 15 12 17 2 1 10 8 4 13 9 6 9 5 22 20 18 13 5 6 14 16 1 11 6 26 16 20 20
19 19 20 20 21 22 8 3 3 4 2 1 2 2 2 1 3 3 4 6 5 13 9 11 11 13 11 11 10 7 14 16 24 20 17 11 7 6 10 12 8 6 12 15
18 20 22 23 22 23 11 3 8 6 2 2 0 3 3 3 3 2 4 4 2 5 12 7 4 5 9 5 4 11 13 9 13 14 14 22 12 8 14 4 1 4 3 6
19 21 24 25 26 26 21 3 5 5 3 0 2 4 6 5 4 3 4 2 2 4 2 2 3 4 3 8 10 5 9 12 9 13 8 2 11 8 6 2 3 3 3 3
18 22 25 26 27 27 23 6 9 5 4 1 3 6 5 7 8 7 1 1 5 3 3 1 2 5 3 7 8 4 6 4 6 4 8 8 5 6 2 2 3 3 3 5
15 20 25 25 26 27 25 5 7 6 4 3 3 0 3 2 9 15 12 4 2 1 2 2 1 1 4 2 3 8 6 11 10 5 4 2 6 6 4 3 2 4 3 6
13 16 21 23 25 25 15 7 9 5 5 4 2 0 1 1 6 11 12 10 5 3 2 3 3 0 1 1 2 4 2 4 6 4 3 4 3 4 7 8 12 12 8 5
15 15 16 21 22 23 6 3 7 6 4 3 1 1 2 2 5 8 11 8 5 4 3 2 2 3 4 2 3 6 6 5 6 2 3 2 4 8 4 9 9 9 11 10
15 16 18 19 21 9 4 3 2 12 6 3 1 3 1 2 1 2 2 0 2 3 3 4 4 4 6 3 5 8 6 9 9 3 4 4 5 7 7 5 5 9 10 11
14 14 17 19 22 15 4 2 18 11 5 2 2 1 2 3 2 3 2 3 2 3 3 2 2 3 4 5 12 14 16 14 6 8 10 12 7 5 8 10 12 13 12 11
18 25 27 9 4 3 3 10 12 3 3 6 4 5 5 4 1 2 1 2 3 2 3 4 5 4 7 11 17 16 12 7 10 5 11 13 10 11 12 13 11 11 9 7
25 9 4 3 2 17 9 5 2 2 1 1 4 2 3 4 3 3 2 1 2 2 2 2 3 5 14 17 9 7 8 10 8 5 3 4 8 11 13 8 6 7 5 6
4 4 3 5 9 3 3 3 3 2 2 3 3 4 5 3 4 3 2 1 1 2 2 3 2 6 3 4 6 6 7 7 10 10 4 7 10 10 9 7 5 6 7 6
6 9 5 2 3 3 3 2 3 3 4 4 5 3 3 3 2 2 2 2 2 3 3 2 5 4 4 3 3 5 3 4 5 6 12 13 10 7 6 7 7 8 8 8
4 5 4 3 1 4 5 6 3 3 5 6 4 4 3 3 2 2 3 3 3 3 4 5 5 4 2 1 2 7 10 13 13 12 11 12 8 7 8 9 8 9 9 7
3 3 3 2 2 4 4 3 4 2 3 8 5 4 2 2 3 3 3 2 3 4 4 6 2 3 3 2 4 10 10 11 12 11 10 11 11 10 9 8 6 7 7 5
2 3 3 3 2 1 1 1 3 1 5 6 5 3 1 2 3 2 3 4 4 5 5 2 2 2 4 6 7 9 10 9 10 10 10 9 9 10 9 6 7 7 5 5
2 3 4 2 1 1 2 2 3 1 4 2 3 3 2 2 2 4 6 4 6 3 1 1 1 4 4 6 8 8 10 12 10 9 10 9 8 9 9 7 7 5 5 5
2 1 1 3 1 3 3 3 3 4 5 3 3 5 4 3 2 4 4 5 1 1 2 2 3 6 7 8 9 9 9 10 10 10 9 8 8 8 8 8 6 7 6 4
Wind_Direction
153 165 188 185 176 165 167 172 202 156 148 191 198 217 207 150 188 183 211 119 198 179 176 193 203 201 228 158 148 168 193 154 207 226 122 93 62 239 225 237 244 230 262 258
131 153 150 178 181 169 174 186 175 174 159 201 211 206 213 213 175 207 177 191 207 201 187 216 196 196 229 166 163 171 178 193 215 246 215 161 211 194 210 240 259 252 261 250
193 173 172 164 178 178 155 159 158 166 192 205 202 203 202 205 202 205 204 178 158 135 218 250 223 204 223 196 199 262 164 178 201 243 243 159 211 216 212 219 240 259 243 277
191 201 214 172 166 197 181 158 236 217 188 199 206 205 193 199 182 213 190 217 207 196 227 228 229 221 238 12 211 187 197 252 233 243 244 214 248 245 221 224 236 243 267 261
200 196 212 214 172 180 211 152 162 181 174 203 198 191 210 213 199 160 211 214 200 218 228 221 228 222 204 226 336 205 185 249 254 263 256 252 260 241 229 225 235 249 259 265
202 202 200 199 203 181 142 100 42 181 181 195 203 223 220 229 218 221 214 207 214 218 223 227 234 230 195 219 220 204 204 228 153 261 238 247 266 239 234 243 238 241 245 252
200 204 206 191 193 208 13 178 106 167 216 209 209 219 224 217 216 221 204 208 211 213 207 236 54 146 223 225 231 230 233 226 225 263 191 227 247 231 201 219 233 233 246 259
204 198 205 197 187 192 98 218 124 185 227 216 229 225 223 228 220 227 222 215 218 208 204 121 200 211 229 228 229 219 214 211 223 233 234 269 276 200 183 197 256 224 233 242
211 206 204 202 190 182 159 68 81 76 100 223 299 232 230 223 222 234 240 70 133 160 192 187 201 198 176 204 224 210 210 215 218 167 220 241 284 308 203 146 263 196 214 233
209 212 209 204 197 186 171 141 139 98 158 256 348 194 201 194 169 224 145 167 169 188 188 212 217 214 175 211 194 156 197 206 220 233 239 263 241 130 142 190 272 179 201 221
217 211 210 205 199 198 180 140 157 130 147 258 356 41 30 357 336 174 219 97 272 179 216 197 184 213 197 185 209 182 181 191 217 223 231 241 150 163 206 196 183 190 189 183
222 219 214 206 201 199 185 138 159 113 137 234 316 248 194 166 114 9 329 42 187 334 256 162 149 179 189 176 226 161 201 206 197 203 213 201 192 214 205 153 157 196 183 199
230 225 213 204 200 198 188 137 139 89 112 237 222 209 212 189 184 146 303 340 355 27 342 331 232 251 160 179 221 144 234 200 219 194 203 214 212 212 170 158 157 167 214 200
237 214 204 199 199 195 183 148 150 119 120 223 251 48 224 145 170 180 173 180 163 34 51 265 267 267 358 254 318 215 186 164 205 246 202 255 236 231 167 177 246 256 232 211
206 191 187 188 193 189 173 131 172 132 143 158 195 247 270 108 183 197 185 175 169 167 195 204 233 275 264 292 293 268 193 201 216 252 194 206 150 163 181 197 228 231 188 186
185 175 177 182 174 175 115 98 186 163 123 117 131 327 343 155 204 210 208 199 189 167 197 198 211 206 196 221 238 258 236 251 241 252 149 210 264 281 247 235 232 198 181 173
169 170 170 168 171 166 118 139 157 131 85 102 133 270 137 279 200 160 161 336 142 175 187 214 182 196 191 224 197 245 234 237 243 183 129 259 200 239 222 206 165 142 127 126
141 150 156 141 115 86 74 334 143 108 98 156 147 232 252 200 158 198 197 183 158 191 197 175 191 165 195 234 235 252 240 240 265 232 210 242 274 211 173 149 142 134 131 123
132 100 91 71 63 85 133 125 113 69 115 161 184 174 200 152 208 146 192 189 225 141 218 200 171 183 222 214 220 233 253 216 226 243 231 235 227 191 169 157 147 134 134 122
94 61 60 83 65 126 88 45 54 62 36 54 182 127 160 178 142 186 218 196 236 217 197 159 228 245 239 236 244 256 226 215 212 198 195 166 181 173 171 164 106 106 120 122
55 66 59 68 115 63 65 123 130 130 130 192 189 186 149 203 168 182 221 229 139 232 156 244 253 256 296 235 252 281 277 223 208 212 192 188 161 152 139 124 123 121 125 127
131 108 114 95 69 65 99 133 131 184 196 174 175 168 131 142 150 153 181 189 171 239 139 201 246 254 261 294 296 317 274 174 118 149 138 136 132 130 142 142 135 134 133 134
50 53 70 77 355 82 172 181 185 195 163 172 162 152 137 142 170 120 159 173 212 124 217 234 245 262 293 352 82 74 86 91 89 83 84 89 92 91 112 107 106 118 105 109
81 121 105 145 160 240 197 206 160 173 141 148 128 107 134 141 146 143 153 169 139 225 232 242 258 317 309 108 108 114 103 98 99 97 98 95 94 86 80 84 96 107 113 115
97 92 137 190 178 117 141 148 136 138 140 131 107 87 127 135 135 188 117 182 230 224 234 226 334 357 118 129 123 116 107 100 96 99 94 93 94 97 93 85 88 96 108 117
78 89 95 130 114 236 159 175 153 145 121 98 69 118 146 181 173 168 206 203 224 242 219 22 79 117 123 119 97 93 103 107 106 107 113 105 98 106 104 88 75 70 76 81
83 306 34 147 172 194 182 163 177 137 153 147 142 162 189 124 197 218 193 220 261 10 346 16 103 122 117 110 101 97 101 108 111 108 106 102 103 104 97 87 75 81 78 76